CW7412 Weather Reports


Display with metric or nautical units.
time (UTC)temp
F
wind
direction
speed
MPH
gust
MPH
rain 1hr
in
rain 24hr
in
rain mn
in
humidity
%
barometer
mb
20260905183204 90 112 7.0 7.0 0.00 0.00 0.00 49 1015.6
20260905180204 89 112 7.0 7.0 0.00 0.00 0.00 52 1016.8
20260905174704 83 112 7.0 7.0 0.00 0.00 0.00 71 1016.8
20260905174203 83 112 7.0 7.0 0.00 0.00 0.00 71 1016.8
20260905173704 83 112 7.0 7.0 0.00 0.00 0.00 71 1016.8
20260905171204 83 112 7.0 7.0 0.00 0.00 0.00 71 1016.8
20260905170704 83 112 7.0 7.0 0.00 0.00 0.00 71 1016.8
20260905164704 83 112 7.0 7.0 0.00 0.00 0.00 71 1016.8
20260905163704 83 112 7.0 7.0 0.00 0.00 0.00 71 1016.8
20260905163204 83 112 7.0 7.0 0.00 0.00 0.00 71 1016.8
20260905161704 83 112 7.0 7.0 0.00 0.00 0.00 71 1016.8
20260905161204 83 112 7.0 7.0 0.00 0.00 0.00 71 1016.8
20260905160704 83 112 7.0 7.0 0.00 0.00 0.00 71 1016.8
20260905154204 83 112 7.0 7.0 0.00 0.00 0.00 71 1016.8
20260905150203 83 112 7.0 7.0 0.00 0.00 0.00 71 1017.2
20260905144204 83 112 7.0 7.0 0.00 0.00 0.00 71 1017.0
20260905141204 82 295 2.0 3.0 0.00 0.00 0.00 79 1016.5
20260905140704 81 231 0.0 1.0 0.00 0.00 0.00 81 1016.5
20260905134703 78 283 0.0 0.0 0.00 0.00 0.00 86 1016.3
20260905131205 75 158 0.0 0.0 0.00 0.00 0.00 90 1016.5
20260905130204 74 166 0.0 0.0 0.00 0.00 0.00 92 1016.5
20260905124704 74 156 0.0 0.0 0.00 0.00 0.00 93 1016.5
20260905121704 71 145 0.0 0.0 0.00 0.00 0.00 95 1016.3
20260905121204 71 151 0.0 0.0 0.00 0.00 0.00 95 1016.2
20260905120708 71 56 0.0 0.0 0.00 0.00 0.00 95 1016.2
20260905114704 71 158 0.0 0.0 0.00 0.00 0.00 95 1016.0
20260905114204 70 48 0.0 0.0 0.00 0.00 0.00 95 1016.0
20260905113204 70 328 0.0 0.0 0.00 0.00 0.00 95 1015.8
20260905104704 70 112 0.0 0.0 0.00 0.00 0.00 95 1015.5
20260905104204 70 64 0.0 0.0 0.00 0.00 0.00 95 1015.5
20260905103704 70 112 0.0 0.0 0.00 0.00 0.00 95 1015.3
20260905101704 70 133 0.0 0.0 0.00 0.00 0.00 95 1015.3
20260905100704 70 58 0.0 0.0 0.00 0.00 0.00 95 1015.3
20260905094204 70 265 0.0 0.0 0.00 0.00 0.00 95 1015.2
20260905091204 70 270 0.0 0.0 0.00 0.00 0.00 95 1015.1
20260905090703 70 90 0.0 0.0 0.00 0.00 0.00 95 1015.1
20260905083704 71 68 0.0 0.0 0.00 0.00 0.00 95 1015.0
20260905083204 71 90 0.0 0.0 0.00 0.00 0.00 95 1015.0
20260905081704 71 99 0.0 0.0 0.00 0.00 0.00 95 1015.0
20260905080704 71 135 0.0 0.0 0.00 0.00 0.00 95 1015.0
20260905080204 71 202 0.0 0.0 0.00 0.00 0.00 95 1015.2
20260905074704 71 158 0.0 0.0 0.00 0.00 0.00 95 1015.3
20260905073704 71 112 0.0 0.0 0.00 0.00 0.00 95 1015.5
20260905073204 71 66 0.0 0.0 0.00 0.00 0.00 95 1015.5
20260905071204 71 157 0.0 0.0 0.00 0.00 0.00 95 1015.7
20260905070704 71 225 0.0 0.0 0.00 0.00 0.00 95 1015.7
20260905070204 72 135 0.0 0.0 0.00 0.00 0.00 95 1015.8
20260905064204 72 253 0.0 0.0 0.00 0.00 0.00 95 1015.8
20260905061203 72 112 0.0 0.0 0.00 0.00 0.00 94 1016.2
20260905060704 72 138 0.0 0.0 0.00 0.00 0.00 94 1016.2
20260905060204 72 180 0.0 0.0 0.00 0.00 0.00 94 1016.3
20260905054703 72 112 0.0 0.0 0.00 0.00 0.00 94 1016.3
20260905051704 73 225 0.0 0.0 0.00 0.00 0.00 94 1016.3
20260905050204 73 82 0.0 0.0 0.00 0.00 0.00 94 1016.5
20260905044704 73 270 0.0 0.0 0.00 0.00 0.00 94 1016.3